Location: Darmstadt
(49.8706°N, 8.6494°E)
Time: 06:19:35
(UTC+01:00)

Cosmos 1844 Rocket - Pass Details

Date: 31 October 2020
Orbit: 823 x 846 km, 71.0° (Epoch: 03 December)

Event Time Altitude Azimuth Distance (km) Brightness Sun altitude
Rises 20:34:44 0° 331° (NNW) 3,414 6.5 -34.2°
Reaches altitude 10° 20:37:13 10° 334° (NNW) 2,477 5.6 -34.5°
Enters shadow 20:39:58 30° 340° (NNW) 1,494 4.2 -34.9°
